{"data":{"norad_id":63386,"epoch":"2026-05-25T04:16:43.017888Z","epoch_age_seconds":62843,"freshness":"FRESH","line1":"1 63386U 25063Z   26145.17827567  .00034324  00000+0  10220-2 0  9995","line2":"2 63386  53.1599  66.8573 0001054  70.7503 289.3614 15.34410838 66289","mean_motion":15.34410838,"eccentricity":0.0001054,"inclination_deg":53.1599,"raan_deg":66.8573,"arg_perigee_deg":70.7503,"mean_anomaly_deg":289.3614,"bstar":0.001022,"rev_number":6628,"period_min":93.847095206714,"perigee_km":461.9500064106,"apogee_km":463.39204874281,"semimajor_km":6840.8080275767,"source":"CELESTRAK","updated_at":"2026-05-25T13:38:19.966580Z"}}